Flag for U.S.A. Weather past 2 weeks in Raleigh, North Carolina, U.S.A.

57 °F

Broken clouds.

Feels Like: 57 °F
Forecast: 49 / 70 °F
Wind: No wind

Location: Raleigh-Durham International Airport

Current Time: Nov 29, 2015 at 9:39:03 AM

Latest Report: Nov 29, 2015 at 8:51 AM

Visibility: 10 mi

Pressure: 30.18 "Hg

Humidity: 90%

Dew point: 54 °F

Location of RaleighLocation

Historic Weather in Raleigh — Graph


Raleigh temperature yesterday

Maximum temperature yesterday: 71 °F (at 12:51 PM)
Minimum temperature yesterday: 46 °F (at 2:51 AM)
Average temperature yesterday: 56 °F

Past Weeks' High & Low Weather Summary

High72 °F (Nov 18, 12:51 PM)97% (Nov 18, 4:51 AM)30.75 "Hg (Nov 18, 4:51 AM)
Low28 °F (Nov 24, 4:51 AM)24% (Nov 15, 2:51 PM)29.91 "Hg (Nov 22, 3:51 AM)
Average51 °F69%30.30 "Hg
* Reported Nov 14 7:51 AM — Nov 29 7:51 AM, Raleigh, Weather by CustomWeather, © 2015

Note: Actual official high and low records may vary slightly from our data, if they occured in-between our weather recording intervals... More about our weather records


Raleigh weather history for previous 24 hours

Time TempWeatherWind HumidityBarometerVisibility
7:51 AM
Sun, Nov 29
54 °FPartly sunny.No wind93%30.17 "Hg10 mi
6:51 AM52 °FPassing clouds.No wind93%30.18 "Hg10 mi
5:51 AM51 °FPassing clouds.No wind96%30.15 "Hg10 mi
4:51 AM51 °FPassing clouds.No wind96%30.15 "Hg10 mi
3:51 AM54 °FPassing clouds.No wind93%30.16 "Hg10 mi
2:51 AM54 °FOvercast.No wind93%30.17 "Hg10 mi
1:51 AM54 °FOvercast.No wind93%30.18 "Hg10 mi
12:51 AM54 °FOvercast.No wind93%30.17 "Hg10 mi
11:51 PM
Sat, Nov 28
54 °FPassing clouds.No wind90%30.18 "Hg10 mi
10:51 PM56 °FPartly cloudy.No wind87%30.19 "Hg10 mi
9:51 PM57 °FPartly cloudy.No wind83%30.19 "Hg10 mi
8:51 PM56 °FPassing clouds.No wind87%30.19 "Hg10 mi
7:51 PM56 °FPartly cloudy.No wind87%30.19 "Hg10 mi
6:51 PM58 °FPartly cloudy.No wind84%30.18 "Hg10 mi
5:51 PM63 °FPartly cloudy.No wind70%30.18 "Hg10 mi
4:51 PM64 °FBroken clouds.No wind68%30.18 "Hg10 mi
3:51 PM68 °FPartly sunny.5 mph59%30.18 "Hg10 mi
2:51 PM69 °FPartly sunny.3 mph57%30.18 "Hg10 mi
1:51 PM71 °FPartly sunny.9 mph51%30.22 "Hg10 mi
12:51 PM71 °FPartly sunny.9 mph55%30.24 "Hg10 mi
11:51 AM66 °FPartly sunny.5 mph63%30.24 "Hg10 mi
10:51 AM63 °FPartly sunny.6 mph73%30.26 "Hg10 mi
9:51 AM58 °FPartly sunny.5 mph84%30.29 "Hg10 mi
Weather by CustomWeather, © 2015

See weather overviewHow to use our weather pages